Location: Albany
(35.0000°S, 118.0000°E)
Time: 06:29:18
(UTC-05:00)

JAS-1B - Visible Passes

Search period start: 25 November 2017 00:00
Search period end: 05 December 2017 00:00
Orbit: 911 x 1744 km, 99.1° (Epoch: 25 November)

Date Brightness Start Highest point End Pass type
(mag) Time Alt. Az. Time Alt. Az. Time Alt. Az.
25 Nov 7.9 11:20:40 10° SSE 11:27:14 46° E 11:27:14 46° E visible
25 Nov 8.5 13:11:52 10° S 13:17:47 26° WSW 13:19:29 24° W visible
26 Nov 7.4 11:39:31 10° SSE 11:46:30 66° E 11:46:30 66° E visible
26 Nov 8.9 13:31:39 10° SSW 13:36:24 19° WSW 13:38:45 16° W visible
27 Nov 9.4 10:12:50 10° ESE 10:13:31 10° E 10:13:31 10° E visible
27 Nov 7.1 11:58:31 10° SSE 12:05:45 87° SW 12:05:45 87° SW visible
27 Nov 9.2 13:52:01 10° SSW 13:54:57 13° SW 13:57:44 10° W visible
28 Nov 9.1 10:29:11 10° SE 10:32:46 16° E 10:32:46 16° E visible
28 Nov 7.3 12:17:39 10° S 12:24:44 62° WSW 12:25:01 62° W visible
29 Nov 8.7 10:47:11 10° SE 10:52:01 24° E 10:52:01 24° E visible
29 Nov 7.7 12:36:55 10° S 12:43:34 44° WSW 12:44:16 42° W visible
30 Nov 8.2 11:05:38 10° SSE 11:11:16 35° E 11:11:16 35° E visible
30 Nov 8.2 12:56:21 10° S 13:02:19 31° WSW 13:03:31 29° W visible
01 Dec 7.6 11:24:20 10° SSE 11:30:31 50° E 11:30:31 50° E visible
01 Dec 8.6 13:15:59 10° SSW 13:21:00 22° WSW 13:22:47 19° W visible
02 Dec 7.1 11:43:14 10° SSE 11:49:46 73° ESE 11:49:46 73° ESE visible
02 Dec 9.0 13:36:01 10° SSW 13:39:36 15° WSW 13:42:01 12° W visible
03 Dec 9.3 10:15:26 10° ESE 10:16:46 11° E 10:16:46 11° E visible
03 Dec 7.0 12:02:16 10° S 12:09:01 77° WSW 12:09:01 77° WSW visible
04 Dec 8.9 10:32:30 10° SE 10:36:01 18° E 10:36:01 18° E visible
04 Dec 7.3 12:21:27 10° S 12:27:57 53° WSW 12:28:16 53° W visible
